Overview Statistics Trail Chart Weather Telemetry Raw packets
 

This is the latest recevied weather packets stored in our database for station/object PA0HHN. If no packets are shown the sender has not sent any weather packets the latest 10 day(s).

<< 9 10 11 12 13 14 15 >>
Time Temp. Humidity Pressure Rain* Wind** Luminosity Snow
1788378302 17.22° C 90% 1011.7 hPa - - - -
1788377402 17.22° C 90% 1012.1 hPa - - - -
1788376500 17.22° C 89% 1012.2 hPa - - - -
1788375601 17.78° C 89% 1012 hPa - - - -
1788374702 17.78° C 88% 1012.2 hPa - - - -
1788373802 17.78° C 88% 1012.1 hPa - - - -
1788372902 17.78° C 87% 1012 hPa - - - -
1788372002 17.78° C 87% 1012.1 hPa - - - -
1788371102 17.78° C 86% 1011.8 hPa - - - -
1788370202 18.89° C 84% 1011.9 hPa - - - -
1788369300 18.89° C 81% 1012 hPa - - - -
1788368402 18.89° C 78% 1011.6 hPa - - - -
1788367500 20° C 78% 1011.7 hPa - - - -
1788366602 20° C 76% 1011.8 hPa - - - -
1788365702 20° C 74% 1011.9 hPa - - - -
1788364802 21.11° C 69% 1012.1 hPa - - - -
1788363902 21.11° C 65% 1012.1 hPa - - - -
1788363002 21.11° C 66% 1012.1 hPa - - - -
1788362100 21.11° C 65% 1012.1 hPa - - - -
1788361200 22.22° C 63% 1012.2 hPa - - - -
1788360302 22.78° C 71% 1012.1 hPa - - - -
1788359401 21.11° C 74% 1012.3 hPa - - - -
1788358502 22.22° C 72% 1011.9 hPa - - - -
1788357600 20° C 75% 1012 hPa - - - -
1788356700 21.11° C 74% 1012 hPa - - - -

* Rain since midnight (hover to see other rain measurements)
** Current wind speed in m/s (hover to see current wind gust speed)